Location: Newark
(42.8481°N, 0.4872°E)
Time: 18:00:45
(UTC+00:00)

Vanguard 3 - Pass Details

Date: 02 November 2020
Orbit: 508 x 3262 km, 33.3° (Epoch: 28 November)

Event Time Altitude Azimuth Distance (km) Brightness Sun altitude
Rises 07:18:13 0° 267° (W) 6,518 11.2 6.6°
Reaches altitude 10° 07:22:14 10° 264° (W) 5,747 11.0 7.2°
Maximum altitude 07:40:41 61° 191° (S) 3,553 10.7 10.2°
Drops below altitude 10° 07:58:26 10° 117° (ESE) 5,542 14.0 12.9°
Sets 08:02:14 0° 114° (ESE) 6,285 13.4 13.5°
